Weather History for KANW - January, 2013

Change the Weather History Date:

Friday, January 4, 2013

  Actual Average Record
Temperature  
Mean Temperature 29 °F -  
Max Temperature 43 °F 34 °F 59 °F (2012)
Min Temperature 15 °F 13 °F -14 °F (1999)
Degree Days  
Heating Degree Days 36    
Moisture  
Dew Point 15 °F    
Average Humidity 61    
Maximum Humidity 79    
Minimum Humidity 37    
Precipitation  
Precipitation 0.00 in - - ()
Sea Level Pressure  
Sea Level Pressure 30.07 in    
Wind  
Wind Speed 6 mph (WSW)    
Max Wind Speed 10 mph    
Max Gust Speed -    
Visibility 10 miles    
Events      
Averages and records for this station are not official NWS values.
T = Trace of Precipitation, MM = Missing Value Source: NWS Daily Summary

Daily Weather History Graph

Daily Weather History Graph

Search for Another Location

Airport or City:

Trip Planner

Search our weather history database for the weather conditions in past years. The results will help you decide how hot, cold, wet, or windy it might be!

Date:

Astronomy

Jan. 04, 2013 Rise Set
Actual Time 8:10 AM CST 5:20 PM CST
Civil Twilight 7:38 AM CST 5:52 PM CST
Nautical Twilight 7:02 AM CST 6:27 PM CST
Astronomical Twilight 6:28 AM CST 7:01 PM CST
Moon 12:06 AM CST (1/4) 11:43 AM CST (1/4)
Length of Visible Light 10h 14m
Length of Day
9h 10m
Waning Gibbous, 55% of the Moon is Illuminated
Jan 4
Waning Gibbous
Jan 4
Last Quarter
Jan 11
New
Jan 18
First Quarter
Jan 26
Full

Hourly Weather History & Observations

Time (CST) Temp. Windchill Dew Point Humidity Pressure Visibility Wind Dir Wind Speed Gust Speed Precip Events Conditions
12:15 AM 15.4 °F 4.6 °F 8.1 °F 73% 30.15 in 10.0 mi WSW 8.1 mph - N/A   Clear
12:35 AM 16.2 °F 6.5 °F 8.1 °F 70% 30.14 in 10.0 mi WSW 6.9 mph - N/A   Clear
12:55 AM 16.5 °F 8.1 °F 8.1 °F 69% 30.13 in 10.0 mi WSW 5.8 mph - N/A   Clear
1:15 AM 15.4 °F 8.1 °F 7.5 °F 71% 30.12 in 10.0 mi West 4.6 mph - N/A   Clear
1:35 AM 15.8 °F 7.2 °F 7.5 °F 70% 30.12 in 10.0 mi WSW 5.8 mph - N/A   Clear
1:55 AM 16.9 °F 5.5 °F 7.5 °F 67% 30.12 in 10.0 mi West 9.2 mph - N/A   Clear
2:15 AM 17.6 °F 5.7 °F 8.6 °F 68% 30.11 in 10.0 mi WSW 10.4 mph - N/A   Clear
2:35 AM 17.6 °F 8.2 °F 7.5 °F 65% 30.11 in 10.0 mi WSW 6.9 mph - N/A   Clear
2:55 AM 16.9 °F 6.4 °F 7.0 °F 65% 30.12 in 10.0 mi West 8.1 mph - N/A   Clear
3:15 AM 16.5 °F 6.0 °F 6.8 °F 66% 30.12 in 10.0 mi WSW 8.1 mph - N/A   Clear
5:55 AM 19.4 °F 8.6 °F 8.6 °F 63% 30.10 in 10.0 mi WSW 9.2 mph - N/A   Clear
6:15 AM 19.4 °F 10.4 °F 9.5 °F 65% 30.10 in 10.0 mi West 6.9 mph - N/A   Clear
6:35 AM 19.0 °F 8.2 °F 9.1 °F 65% 30.10 in 10.0 mi West 9.2 mph - N/A   Clear
6:55 AM 18.1 °F 8.9 °F 8.6 °F 66% 30.10 in 10.0 mi West 6.9 mph - N/A   Clear
7:15 AM 16.2 °F 6.5 °F 7.5 °F 69% 30.10 in 10.0 mi West 6.9 mph - N/A   Clear
7:35 AM 16.7 °F 6.2 °F 7.7 °F 68% 30.11 in 10.0 mi West 8.1 mph - N/A   Clear
7:55 AM 17.4 °F 6.2 °F 7.7 °F 66% 30.11 in 10.0 mi WSW 9.2 mph - N/A   Clear
8:15 AM 17.1 °F 6.6 °F 7.5 °F 66% 30.11 in 10.0 mi WSW 8.1 mph - N/A   Clear
8:35 AM 17.4 °F 9.1 °F 7.7 °F 66% 30.11 in 10.0 mi WSW 5.8 mph - N/A   Clear
8:55 AM 19.2 °F 11.3 °F 8.8 °F 64% 30.11 in 10.0 mi WSW 5.8 mph - N/A   Clear
9:15 AM 21.9 °F 12.5 °F 10.2 °F 61% 30.11 in 10.0 mi WSW 8.1 mph - N/A   Clear
9:35 AM 23.9 °F 15.0 °F 11.1 °F 58% 30.12 in 10.0 mi WSW 8.1 mph - N/A   Clear
9:55 AM 26.4 °F 18.9 °F 12.4 °F 55% 30.12 in 10.0 mi West 6.9 mph - N/A   Clear
10:15 AM 28.2 °F 21.0 °F 12.9 °F 53% 30.12 in 10.0 mi WSW 6.9 mph - N/A   Clear
10:35 AM 30.2 °F 22.6 °F 13.3 °F 49% 30.13 in 10.0 mi West 8.1 mph - N/A   Clear
10:55 AM 32.0 °F 26.4 °F 14.2 °F 48% 30.13 in 10.0 mi West 5.8 mph - N/A   Clear
11:15 AM 33.1 °F 26.9 °F 14.4 °F 46% 30.12 in 10.0 mi West 6.9 mph - N/A   Clear
11:35 AM 34.7 °F 29.6 °F 17.1 °F 49% 30.12 in 10.0 mi West 5.8 mph - N/A   Clear
11:55 AM 35.6 °F 31.7 °F 15.8 °F 44% 30.11 in 10.0 mi West 4.6 mph - N/A   Clear
12:15 PM 37.4 °F 33.8 °F 17.6 °F 45% 30.10 in 10.0 mi WNW 4.6 mph - N/A   Clear
12:35 PM 38.1 °F 34.6 °F 17.1 °F 43% 30.10 in 10.0 mi WNW 4.6 mph - N/A   Clear
12:55 PM 39.6 °F 37.4 °F 17.8 °F 41% 30.09 in 10.0 mi West 3.5 mph - N/A   Clear
1:15 PM 40.6 °F - 18.5 °F 41% 30.08 in 10.0 mi Calm Calm - N/A   Clear
1:35 PM 41.5 °F - 19.2 °F 41% 30.07 in 10.0 mi Calm Calm - N/A   Clear
1:55 PM 41.9 °F - 21.2 °F 44% 30.07 in 10.0 mi Calm Calm - N/A   Clear
2:15 PM 41.9 °F - 19.4 °F 41% 30.06 in 10.0 mi Calm Calm - N/A   Clear
2:35 PM 43.0 °F - 18.0 °F 37% 30.05 in 10.0 mi Calm Calm - N/A   Clear
2:55 PM 43.3 °F 41.7 °F 19.2 °F 38% 30.05 in 10.0 mi SSW 3.5 mph - N/A   Clear
3:15 PM 43.0 °F 40.3 °F 20.8 °F 41% 30.05 in 10.0 mi SSW 4.6 mph - N/A   Clear
3:35 PM 43.0 °F 40.3 °F 19.4 °F 39% 30.04 in 10.0 mi SSW 4.6 mph - N/A   Clear
3:55 PM 43.3 °F 41.7 °F 22.5 °F 44% 30.04 in 10.0 mi SSW 3.5 mph - N/A   Clear
4:15 PM 42.1 °F 37.7 °F 25.3 °F 52% 30.04 in 10.0 mi South 6.9 mph - N/A   Clear
4:35 PM 39.9 °F 35.8 °F 24.4 °F 54% 30.04 in 10.0 mi South 5.8 mph - N/A   Clear
4:55 PM 37.2 °F 34.7 °F 23.9 °F 59% 30.04 in 10.0 mi South 3.5 mph - N/A   Clear
5:15 PM 35.6 °F 31.7 °F 23.0 °F 60% 30.04 in 10.0 mi SSW 4.6 mph - N/A   Clear
5:35 PM 34.7 °F 29.6 °F 20.8 °F 57% 30.04 in 10.0 mi SW 5.8 mph - N/A   Clear
5:55 PM 31.5 °F 26.8 °F 20.5 °F 64% 30.04 in 10.0 mi WSW 4.6 mph - N/A   Clear
6:15 PM 30.4 °F 26.9 °F 21.2 °F 69% 30.03 in 10.0 mi West 3.5 mph - N/A   Clear
6:35 PM 30.0 °F 26.5 °F 20.8 °F 69% 30.03 in 10.0 mi West 3.5 mph - N/A   Clear
6:55 PM 31.5 °F 25.8 °F 19.9 °F 62% 30.02 in 10.0 mi West 5.8 mph - N/A   Clear
7:15 PM 24.8 °F 19.1 °F 18.3 °F 76% 30.03 in 10.0 mi SSW 4.6 mph - N/A   Clear
7:35 PM 22.8 °F 13.6 °F 17.2 °F 79% 30.03 in 10.0 mi SSW 8.1 mph - N/A   Clear
7:55 PM 25.2 °F 18.3 °F 18.3 °F 75% 30.02 in 10.0 mi SSW 5.8 mph - N/A   Clear
8:15 PM 24.6 °F 17.7 °F 17.6 °F 75% 30.02 in 10.0 mi SW 5.8 mph - N/A   Clear
8:35 PM 24.3 °F 16.3 °F 17.1 °F 74% 30.02 in 10.0 mi SSW 6.9 mph - N/A   Clear
8:55 PM 23.0 °F 13.9 °F 16.7 °F 77% 30.02 in 10.0 mi SSW 8.1 mph - N/A   Clear
9:15 PM 23.9 °F 16.8 °F 18.0 °F 78% 30.02 in 10.0 mi SSW 5.8 mph - N/A   Clear
9:35 PM 24.8 °F 16.9 °F 17.6 °F 74% 30.01 in 10.0 mi SSW 6.9 mph - N/A   Clear
9:55 PM 23.4 °F 15.2 °F 16.5 °F 75% 30.01 in 10.0 mi SW 6.9 mph - N/A   Clear
10:15 PM 23.2 °F 15.0 °F 16.9 °F 77% 30.01 in 10.0 mi SSW 6.9 mph - N/A   Clear
10:35 PM 23.7 °F 15.6 °F 17.2 °F 76% 30.01 in 10.0 mi SW 6.9 mph - N/A   Clear
10:55 PM 23.2 °F 14.1 °F 16.9 °F 77% 30.01 in 10.0 mi WNW 8.1 mph - N/A   Clear
11:15 PM 22.6 °F 11.9 °F 15.8 °F 75% 30.01 in 10.0 mi WNW 10.4 mph - N/A   Clear
11:35 PM 21.9 °F 13.4 °F 14.4 °F 73% 30.01 in 10.0 mi West 6.9 mph - N/A   Clear
11:55 PM 19.6 °F 10.6 °F 12.7 °F 75% 30.01 in 10.0 mi SW 6.9 mph - N/A   Clear